Regional Weather Roundup
Issued by NWS Upton, NY

Current Version | Previous Version | Graphics & Text | Print | Product List | Glossary Off
Versions: 1 2 3 4 5 6 7 8 9 10 11 12 13 14 15 16 17 18 19 20 21 22 23 24 25 26 27

000
ASUS41 KOKX 290505
RWROKX

REGIONAL WEATHER ROUNDUP
NATIONAL WEATHER SERVICE NEW YORK NY
100 AM EDT SUN MAY 29 2016

NOTE: "FAIR" INDICATES FEW OR NO CLOUDS BELOW 12,000 FEET WITH NO
SIGNIFICANT WEATHER AND/OR OBSTRUCTIONS TO VISIBILITY.

NYZ071-072-176-178-NJZ106-104-290600-
NEW YORK CITY METRO AREA


CITY           SKY/WX    TMP DP  RH WIND       PRES   REMARKS
CENTRAL PARK   CLEAR     77  57  50 VRB5      30.15S
LAGUARDIA APRT CLEAR     80  63  55 SW9       30.12R
KENNEDY INTL   PTCLDY    67  51  56 S6        30.14S
NEWARK/LIBERTY CLEAR     77  58  51 SW10      30.12S
BRNX BOT. GARD   N/A     79  61  53 SW7       30.13F
TETERBORO      CLEAR     77  61  57 S6        30.11R
$$

NYZ177-179-078>081-290600-
LONG ISLAND NEW YORK

CITY           SKY/WX    TMP DP  RH WIND       PRES   REMARKS
FARMINGDALE    CLEAR     68  50  52 SW6       30.15S
ISLIP          CLEAR     68  53  58 SW10      30.15R
SHIRLEY        CLEAR     69  55  60 SW10      30.16S
RIVERHEAD      NOT AVBL
WESTHAMPTON    CLEAR     67  56  67 SW13G21   30.17S
EAST HAMPTON   FAIR      67  52  59 SW13      30.14S
MONTAUK POINT    N/A     65  54  67 SW10G20   30.15S
$$

NYZ052-065-067-290600-
HUDSON VALLEY

CITY           SKY/WX    TMP DP  RH WIND       PRES   REMARKS
WHITE PLAINS   CLEAR     69  64  84 CALM      30.13S
NEWBURGH       CLEAR     72  70  94 CALM      30.14R
MONTGOMERY     CLOUDY    68  67  96 SW3       30.12S
POUGHKEEPSIE   CLEAR     72  67  84 CALM      30.11R
ALBANY         PTCLDY    77  66  68 S5        30.09S
$$

NJZ001-105-106-008-010-013-015-019>022-104-290600-
NEW JERSEY

CITY           SKY/WX    TMP DP  RH WIND       PRES   REMARKS
NEWARK/LIBERTY CLEAR     77  58  51 SW10      30.12S
TETERBORO      CLEAR     77  61  57 S6        30.11R
CALDWELL       CLEAR     73  67  81 CALM      30.13R
MORRISTOWN     CLEAR     73  63  68 CALM      30.13S
SOMERVILLE     CLEAR     70  65  84 CALM      30.12R
SUSSEX         CLEAR     69  67  93 CALM      30.14R FOG
ANDOVER          N/A     68  67  96 CALM      30.15R
TRENTON        CLEAR     72  55  55 S6        30.14S
MILLVILLE      CLEAR     67  58  72 CALM      30.17S
ATLANTIC CITY  PTCLDY    68  61  78 S6        30.17S
WRIGHTSTOWN    NOT AVBL
TOMS RIVER     CLEAR    N/A N/A N/A S7        30.16S
BELMAR         CLEAR     71  45  39 SW7       30.16
$$

PAZ047>061-062-071-290600-
EASTERN PENNSYLVANIA

CITY           SKY/WX    TMP DP  RH WIND       PRES   REMARKS
PHILADELPHIA   CLOUDY    70  59  68 S6        30.15S
ALLENTOWN      CLEAR     71  63  75 SW5       30.14R
SCRANTON       CLEAR     74  67  78 CALM      30.14S
$$

CTZ002-004>006-009-010-012-RIZ004-006-007-MAZ004-011-015-290600-
SOUTHERN NEW ENGLAND
 IN CT

CITY           SKY/WX    TMP DP  RH WIND       PRES   REMARKS
BRADLEY INTL   PTCLDY    72  63  73 S6        30.10S
HARTFORD       CLEAR     73  62  68 S6        30.11S
DANBURY        CLOUDY    71  65  81 CALM      30.15R
WTRBRY/OXFORD    N/A     70  61  73 CALM      30.15S
BRIDGEPORT     CLEAR     70  60  70 SW3       30.12S
MERIDEN        CLEAR     70  59  68 CALM      30.13R
NEW HAVEN      CLEAR     68  58  70 CALM      30.13S
CHESTER        FAIR      70  55  60 VRB5      30.14S
GROTON         CLEAR     64  59  83 CALM      30.13S
WILLIMANTIC    MOCLDY    71  63  75 CALM      30.13S

 IN RI

CITY           SKY/WX    TMP DP  RH WIND       PRES   REMARKS
PROVIDENCE     CLEAR     73  59  61 SW9       30.11S
BLOCK ISLAND   CLEAR     62  54  74 SW18      30.15S
WESTERLY       CLEAR     67  57  70 CALM      30.14S

 IN MA

CITY           SKY/WX    TMP DP  RH WIND       PRES   REMARKS
BOSTON         PTCLDY    75  65  70 SW5       30.09S
WORCESTER      CLEAR     69  64  84 SW10      30.14F
WESTFIELD      CLEAR     72  65  78 S6        30.11R
PROVINCETOWN   CLEAR     63  58  83 S10       30.11S
NANTUCKET      CLEAR     59  55  87 SW8       30.15F
$$

ANZ330-335-338-340-345-350-353-355-290600-
COASTAL MARINE OBSERVATIONS


STATION/POSITION TIME  SKY/WX   TEMP    WIND        PRES    VSBY  WAVE
                                AIR SEA DIR/SP/G                  HT/PER
                 (UTC)          (F)     (DEG/KT/KT) (MB)    (MI)  (FT/S)
NY HARB ENTRANCE 0350            62 58  200/ 14/ 14 1020.1          3/ 5
20S FIRE ISLAND  0350            63 59  210/ 16/ 17 1020.4          3/ 5
GREAT SOUTH BAY  0400            67 70  250/ 12/ 17   N/A
23 SSW MONTAUK P 0450            60 57  250/ 10/ 12 1020.7          3/ 5
15 E BARNEGAT LI 0422               59                N/A           3/ 7
HUDSON CANYON    0350            61 58              1022.0          3/ 8
KINGS POINT      0400            74 63              1019.9
EXECUTION ROCKS  NOT AVBL
CENTRAL LI SOUND 0400            66      CALM  /  2   N/A           1/ 3
EASTERN LI SOUND 0400            61 55  230/  4/  6   N/A
ROBBINS REEF     0400            78     220/ 13/ 17 1019.4
$$


>>>>>>>>>>>>>>>>>>>>>>>>>>>> KEY <<<<<<<<<<<<<<<<<<<<<<<<<<<
>                                                          <
>     SKY/WX - SKY CONDITION/PRESENT WEATHER               <
>     TMP    - TEMPERATURE IN FAHRENHEIT                   <
>     DP     - DEWPOINT IN FAHRENHEIT                      <
>     RH     - RELATIVE HUMIDITY IN PERCENT                <
>     WIND   - DIRECTION AND SPEED IN MPH                  <
>     PRES   - MEAN SEA LEVEL PRESSURE IN INCHES OF HG     <
>     WCI    - WIND CHILL INDEX                            <
>     VSB    - VISIBILITY IN MILES                         <
>     HX     - HEAT INDEX                                  <
>     TC     - TEMPERATURE IN CELSIUS                      <
>     VRB    - VARIABLE WIND DIRECTION                     <
>                                                          <
>>>>>>>>>>>>>>>>>>>>>>>>>>>> KEY <<<<<<<<<<<<<<<<<<<<<<<<<<<






USA.gov is the U.S. government's official web portal to all federal, state and local government web resources and services.